YAOGAN-3 (32289 NORAD) Tracking and Keplerian Element Data

This shows tracking and keplerian element data for the satellite.

Feedback or suggestion? Click here.




ElementValue
Catalog32289
NameYAOGAN-3
Epoch Orbit93178
Epoch Day35.11535128
Epoch Year2025
RAAN64.3606
Inclination97.8682
Eccentricity0.000107
Argument of Perigee93.5037
Mean Anonmoly266.6302
Mean Motion14.87746205
Decay Rate3.907E-05
L11 32289U 07055A 25035.11535128 .00003907 00000+0 43428-3 0 9994
L22 32289 97.8682 64.3606 0001070 93.5037 266.6302 14.87746205931783



Live tracking and technical data element details for YAOGAN-3 (NORAD 32289). YAOGAN-3 can be tracked NOW for your location showing map with azimuth and elevation plus other details from your city location.







IsCatalogInMostPopularTable: catalog: 32289, numindb: 279
Update: records affected: 1



GetName: 32289 YAOGAN-3

Hit Count: updated at: Sat, 17 May 2025 08:47:59 GMT